Barbells For Boobs

Overall Finish List

October 17, 2015


Results By Pro-Fit Event Services LLC - Belton, TX Pro-Fit Event Services LLC

5K

Place Name City Bib No Age Gender Age Group Total Time Pace
1 Celester Harrison Belton TX 176 44 M 1 1-99 19:41.7 6:21/M
2 Lance Gay Belton TX 42 45 M 2 1-99 19:54.9 6:25/M
3 Hailey Gibbons Belton TX 31 24 F 1 1-99 20:13.5 6:31/M
4 Bentley Phillips Belton TX 177 28 M 3 1-99 20:28.5 6:36/M
5 Steve Velkovski Belton TX 180 30 M 4 1-99 21:02.4 6:47/M
6 Andrew Lane Killeen TX 43 14 M 5 1-99 21:12.7 6:50/M
7 Stephen Vogel Killeen TX 58 28 M 6 1-99 21:13.0 6:51/M
8 Maggie Ingell Harker Heights TX 30 23 F 2 1-99 21:16.6 6:52/M
9 Matthew Mahler Belton TX 181 17 M 7 1-99 21:18.9 6:52/M
10 Cavanary Kory Belton TX 172 31 M 8 1-99 21:19.6 6:53/M
11 Joseph Hermann Temple TX 154 17 M 9 1-99 22:13.2 7:10/M
12 Casey Brewer Temple TX 120 14 M 10 1-99 22:13.3 7:10/M
13 Emily Del Real Belton TX 81 17 F 3 1-99 22:17.3 7:11/M
14 Abe Villarreal Belton TX 79 17 M 11 1-99 22:21.0 7:13/M
15 Dharma Gutierrez Belton TX 143 16 F 4 1-99 22:23.7 7:13/M
16 Destinee Batista Temple TX 90 16 F 5 1-99 22:23.8 7:13/M
17 Mckenna Thompson Belton TX 85 16 F 6 1-99 22:24.6 7:14/M
18 Maria Martinez Belton TX 73 16 F 7 1-99 22:27.5 7:15/M
19 Heather Smith Jefferson City MO 112 28 F 8 1-99 22:54.3 7:23/M
20 Greg Robinson Belton TX 35 45 M 12 1-99 23:21.9 7:32/M
21 David Hermann Temple TX 153 17 M 13 1-99 23:41.9 7:38/M
22 Jeremy Vasquez Temple TX 179 27 M 14 1-99 23:48.5 7:41/M
23 Olivia Fullenwider Belton TX 70 16 F 9 1-99 23:48.6 7:41/M
24 Phoenix Phillips Belton TX 113 17 M 15 1-99 23:53.0 7:42/M
25 Dylan Contreras Visalia CA 116 16 M 16 1-99 23:54.4 7:43/M
26 James Creech Georgetown TX 83 44 M 17 1-99 24:13.2 7:49/M
27 Latisha Salazar Temple TX 117 25 F 10 1-99 24:25.0 7:53/M
28 Paige Hoellen Salado TX 97 33 F 11 1-99 24:48.4 8:00/M
29 Jessica Long Belton TX 171 39 F 12 1-99 25:09.5 8:07/M
30 Kelly Austin Temple TX 135 35 F 13 1-99 25:19.2 8:10/M
31 Jeremiah Austin Temple TX 134 38 M 18 1-99 25:19.9 8:10/M
32 Nick Gutierrez Harker Heights TX 158 36 M 19 1-99 25:59.6 8:23/M
33 Wendy Puccio Belton TX 114 38 F 14 1-99 26:17.9 8:29/M
34 Mariesa Kanetzky Florence TX 165 48 F 15 1-99 26:29.0 8:33/M
35 Shelly Gazette Temple TX 1 43 F 16 1-99 26:35.7 8:35/M
36 Dowdy Liz Salado TX 175 28 F 17 1-99 27:05.8 8:44/M
37 Michael Finn Belton TX 21 61 M 20 1-99 27:14.0 8:47/M
38 Ret Carruthers Georgetown TX 111 56 F 18 1-99 27:27.9 8:51/M
39 Eric Puccio Belton TX 115 31 M 21 1-99 27:36.2 8:54/M
40 Laurin McGinniss Travis TX 2 30 F 19 1-99 27:42.5 8:56/M
41 Justine Beeson Killeen TX 49 31 F 20 1-99 27:46.1 8:57/M
42 Dani Black Temple TX 18 30 F 21 1-99 27:51.0 8:59/M
43 Joel Blair Temple TX 100 38 M 22 1-99 27:51.5 8:59/M
44 Leslie White Temple TX 119 48 F 22 1-99 27:55.9 9:00/M
45 Elizabeth Pare Temple TX 86 17 F 23 1-99 28:02.6 9:03/M
46 Van Bishop Belton TX 136 51 M 23 1-99 28:09.5 9:05/M
47 Meghan Pare Temple TX 89 23 F 24 1-99 28:19.9 9:08/M
48 Leila Diaz Temple TX 11 37 F 25 1-99 28:36.9 9:14/M
49 Matthew Calhoun Temple TX 36 26 M 24 1-99 28:37.7 9:14/M
50 Daisy Mae Estrada Temple TX 47 33 F 26 1-99 28:50.6 9:18/M
51 Katie Estell Belton TX 46 34 F 27 1-99 28:52.9 9:19/M
52 Rob Chapman Belton TX 168 46 M 25 1-99 29:05.1 9:23/M
53 Catherine Carrera Belton TX 144 43 F 28 1-99 29:08.9 9:24/M
54 Julia Carruthers Georgetown TX 148 21 F 29 1-99 29:15.1 9:26/M
55 Joe Kerr Dallas TX 38 34 M 26 1-99 29:24.6 9:29/M
56 Priscilla Ontiveros Temple TX 150 31 F 30 1-99 29:27.6 9:30/M
57 Clayton Bivens Temple TX 68 35 M 27 1-99 29:34.5 9:32/M
58 Sarah Humphrey Salado TX 157 38 F 31 1-99 29:41.6 9:35/M
59 Jennifer Bestick Temple TX 160 30 F 32 1-99 29:45.8 9:36/M
60 Ej Salinas Belton TX 65 27 M 28 1-99 29:48.8 9:37/M
61 Kelly Goldston Belton TX 51 45 F 33 1-99 30:14.8 9:45/M
62 Marighny Dutton Woodway TX 67 33 F 34 1-99 30:15.3 9:45/M
63 Khaki Dobbs Lorena TX 40 38 F 35 1-99 30:15.7 9:45/M
64 Rachel Calhoun Temple TX 37 27 F 36 1-99 30:24.5 9:48/M
65 Katie Kelley Killeen TX 146 31 F 37 1-99 30:26.0 9:49/M
66 Tamara Hedberg Temple TX 41 45 F 38 1-99 30:28.9 9:50/M
67 John Pare Temple TX 87 53 M 29 1-99 30:37.7 9:53/M
68 Katie Hermann Temple TX 152 45 F 39 1-99 30:41.3 9:54/M
69 Timea Morgan Temple TX 27 40 F 40 1-99 30:49.1 9:56/M
70 Laura Betik Temple TX 80 27 F 41 1-99 30:53.5 9:58/M
71 Lauren Hoover Temple TX 151 22 F 42 1-99 30:58.4 9:59/M
72 Kristy Decker Temple TX 159 36 F 43 1-99 31:08.2 10:03/M
73 Alison Moseley Temple TX 131 13 F 44 1-99 31:15.7 10:05/M
74 Brigitte Allen Temple TX 118 50 F 45 1-99 31:26.7 10:08/M
75 Ashley Paulsen Killeen TX 28 23 F 46 1-99 31:50.4 10:16/M
76 Nancy McDonald Temple TX 17 55 F 47 1-99 32:23.0 10:27/M
77 Jim Calhoun Temple TX 155 56 M 30 1-99 32:24.1 10:27/M
78 Jacob Jackson Fort Worth TX 98 33 M 31 1-99 32:44.3 10:34/M
79 Tommora Jackson Fort Worth TX 99 33 F 48 1-99 32:45.0 10:34/M
80 Magda Ortiz Temple TX 24 37 F 49 1-99 32:46.1 10:34/M
81 Michael Thomas Temple TX 25 45 M 32 1-99 32:47.2 10:35/M
82 Lindsay Heller Lorena TX 104 26 F 50 1-99 32:50.9 10:35/M
83 Teresa Pare Temple TX 88 56 F 51 1-99 33:05.8 10:40/M
84 William Calem Georgetown TX 72 52 M 33 1-99 33:15.7 10:44/M
85 Ginger Calem Georgetown TX 71 45 F 52 1-99 33:16.4 10:44/M
86 Belinda Richardson Killeen TX 64 42 F 53 1-99 33:18.5 10:45/M
87 Melanie Smith Harker Heights TX 59 35 F 54 1-99 33:22.5 10:46/M
88 Anna Musulin Temple TX 62 37 F 55 1-99 33:28.2 10:48/M
89 Stacie Ball Plano TX 140 45 F 56 1-99 34:03.2 10:59/M
90 Lorie Creech Georgetown TX 82 44 F 57 1-99 34:43.4 11:12/M
91 Maria Castr0 Killeen TX 178 23 F 58 1-99 35:05.5 11:19/M
92 Pat Cummings Killeen TX 170 64 F 59 1-99 35:29.9 11:27/M
93 Megan Leighman Killeen TX 95 39 F 60 1-99 35:30.2 11:27/M
94 Danielle McNiel Temple TX 121 25 F 61 1-99 35:50.8 11:34/M
95 Ainslee Bowers Temple TX 101 40 F 62 1-99 36:39.0 11:49/M
96 Ashley Duran Temple TX 174 13 F 63 1-99 36:42.3 11:50/M
97 Karen Kahlig Rogers TX 103 46 F 64 1-99 36:53.0 11:54/M
98 William Ceniceros Harker Heights TX 33 16 M 34 1-99 37:43.0 12:10/M
99 Mandy Kennedy Temple TX 167 31 F 65 1-99 38:02.7 12:16/M
100 Jessica Napolez Temple TX 166 30 F 66 1-99 38:02.8 12:16/M
 
Place Name City Bib No Age Gender Age Group Total Time Pace
101 Jerry Staten Harker Heights TX 142 48 M 35 1-99 38:52.6 12:32/M
102 Ronata Staten Harker Heights TX 141 46 F 67 1-99 38:52.8 12:32/M
103 Teresa Del Real Belton TX 84 51 F 68 1-99 39:21.9 12:42/M
104 Laura Calhoun Temple TX 156 54 F 69 1-99 39:28.9 12:44/M
105 Sascha Howard Temple TX 130 41 F 70 1-99 39:59.3 12:54/M
106 Jessica Lucksinger Temple TX 164 40 F 71 1-99 40:20.2 13:01/M
107 Beverly Hejl Temple TX 149 26 F 72 1-99 40:20.6 13:01/M
108 Danielle Smith Temple TX 128 30 F 73 1-99 41:01.1 13:14/M
109 Jenn Powers Killeen TX 39 35 F 74 1-99 41:30.8 13:23/M
110 Amber Bartek Temple TX 124 32 F 75 1-99 42:06.7 13:35/M
111 Savanna Brooks Temple TX 127 20 F 76 1-99 42:51.0 13:49/M
112 Samantha Cox Temple TX 126 42 F 77 1-99 42:51.0 13:49/M
113 Stacy Whitley Belton TX 53 39 F 78 1-99 43:02.0 13:53/M
114 Lisa Green Harker Heights TX 45 38 F 79 1-99 43:07.9 13:55/M
115 Renee Michaels Killeen TX 44 43 F 80 1-99 43:55.8 14:10/M
116 Joseph Ceniceros Harker Heights TX 34 13 M 36 1-99 44:14.6 14:16/M
117 Elizabeth Vera Harker Heights TX 32 34 F 81 1-99 44:14.8 14:16/M
118 Dionely Rodriguez Temple TX 108 40 F 82 1-99 46:03.4 14:51/M
119 Dawn Sprage Temple TX 109 44 F 83 1-99 46:03.9 14:51/M
120 Sandra Galindo Temple TX 132 45 F 84 1-99 47:59.0 15:29/M
121 Terri Holwerda Temple TX 125 53 F 85 1-99 47:59.7 15:29/M
122 Kathy Pomerenke Temple TX 61 61 F 86 1-99 48:35.0 15:40/M
123 Zeb Pomerenke Temple TX 60 36 M 37 1-99 48:37.1 15:41/M
124 Tyson Patrick Belton KS 4 28 M 38 1-99 49:22.8 15:55/M
125 Rachel Patrick Belton KS 3 25 F 87 1-99 49:23.2 15:56/M
126 Kim Godin Fort Worth TX 63 50 F 88 1-99 49:28.8 15:57/M
127 Jennifer Robinson Temple TX 145 27 F 89 1-99 49:30.0 15:58/M
128 Jo Anne Trower Harker Heights TX 29 60 F 90 1-99 49:30.9 15:58/M
129 Kathy Tipton Temple TX 23 57 F 91 1-99 49:31.1 15:58/M
130 Shauna Farmer Belton TX 161 38 F 92 1-99 50:34.5 16:19/M
131 Lavonna Constance Belton TX 19 46 F 93 1-99 50:36.3 16:19/M
132 Irene Navichoque Temple TX 129 48 F 94 1-99 50:36.4 16:19/M
133 Tiffanie Vannatta Belton TX 75 42 F 95 1-99 50:36.5 16:19/M
134 Hayley Constance Temple TX 69 22 F 96 1-99 50:36.9 16:19/M
135 Stacy Williams Rogers TX 7 31 F 97 1-99 50:39.4 16:20/M
136 Maggie Salinas Belton TX 76 47 F 98 1-99 52:57.8 17:05/M
137 Dolores Gloria Belton TX 78 67 F 99 1-99 52:59.0 17:05/M
138 Gloria Gloria Belton TX 77 39 F 100 1-99 53:00.1 17:06/M
139 Ryan Constance Temple TX 173 16 M 39 1-99 53:10.6 17:09/M
140 Mandi Wilson Belton TX 162 26 F 101 1-99 53:16.6 17:11/M
141 Kelsie Kaminska Killeen TX 169 16 F 102 1-99 53:19.8 17:12/M
142 Ashley Barrett Temple TX 133 27 F 103 1-99 53:27.1 17:15/M
143 Tonya Duran Temple TX 123 41 F 104 1-99 54:00.8 17:25/M
144 Rosa Salinas Belton TX 66 27 F 105 1-99 58:11.4 18:46/M
145 Cherese Walker Temple TX 122 49 F 106 1-99 58:40.2 18:55/M